Wind_Speed
33 35 39 41 45 49 53 56 58 60 62 62 64 67 69 71 71 72 72 69 65 60 56 53 52 50 47 43 40 38 35 32 28 24 19 15 12 11 11 10 9 8 8 8 9 11 14 17 19 22 24 27 29 32 34 36 37 37 37 37 36 36 36 36 36 36 37 37 36 33 35 37 36 36 35 31 28 28 29 31 31 30 29 29 30 30 30 31
35 37 39 44 48 51 53 56 58 59 60 61 65 68 69 70 71 70 66 62 58 54 51 48 47 43 40 36 33 32 29 25 21 17 12 9 9 9 9 7 5 3 2 1 2 4 7 9 12 15 17 19 22 24 26 28 30 30 31 32 32 32 33 34 34 35 36 36 35 33 35 36 33 33 31 24 23 26 27 29 30 29 28 27 26 26 27 29
37 38 42 46 49 50 53 55 56 57 59 63 66 67 68 69 67 64 60 56 52 48 45 42 40 36 32 29 28 26 22 18 15 13 9 8 11 14 13 10 7 6 5 5 6 6 6 7 8 10 12 14 16 18 20 22 23 25 26 28 30 30 31 32 33 34 35 36 35 30 31 32 28 26 25 20 19 24 28 27 29 29 27 24 21 22 25 27
38 39 42 46 48 51 53 53 54 57 61 64 64 66 67 65 61 58 55 51 46 42 38 36 33 30 26 24 24 22 17 14 14 14 11 11 14 18 19 17 14 11 10 9 9 10 10 10 10 11 12 13 14 15 16 18 20 22 24 26 27 28 30 31 32 34 34 35 34 28 27 26 23 24 25 22 19 18 22 24 26 27 24 20 17 19 23 22
37 38 42 46 48 50 51 51 54 58 61 62 64 65 63 59 56 53 49 44 39 34 31 30 27 24 21 21 21 18 14 15 17 17 18 18 18 21 23 23 21 19 17 15 13 12 12 11 11 11 12 13 14 15 16 17 19 20 22 24 26 28 30 32 33 34 35 35 29 23 23 23 24 29 29 27 23 17 17 20 23 24 20 18 20 24 24 22
36 39 43 44 46 47 48 51 55 57 59 61 62 60 56 54 52 48 43 37 31 27 26 25 22 20 18 20 20 18 18 20 21 21 24 24 24 25 25 26 26 24 23 22 20 18 16 15 13 12 11 12 13 14 15 17 19 21 23 24 26 28 30 32 33 33 33 31 23 18 22 26 27 30 29 29 27 24 23 23 24 23 21 22 26 28 26 26
36 38 39 41 43 45 47 51 53 56 58 59 57 54 52 50 47 42 36 29 25 22 22 21 19 18 18 21 21 21 24 26 25 25 26 27 29 30 30 30 29 27 26 25 23 22 21 20 19 17 15 13 12 13 14 15 17 19 20 23 25 26 28 29 30 30 29 26 21 22 28 30 30 30 31 31 29 29 29 28 26 23 23 25 26 26 27 26
33 34 36 38 40 43 46 49 53 55 56 54 52 50 48 45 40 34 28 23 20 19 19 18 18 17 20 22 21 25 29 28 27 28 28 29 31 33 34 33 31 30 28 27 25 24 23 22 22 20 19 17 15 13 12 13 14 15 17 19 21 23 24 26 26 27 26 23 22 26 30 32 32 32 32 31 30 30 29 29 26 24 25 25 25 26 27 26
29 31 34 36 39 42 46 49 52 52 51 49 47 45 42 38 32 26 22 19 17 16 16 16 17 19 23 24 24 30 31 29 30 30 31 32 33 33 34 33 33 32 30 29 27 26 24 23 22 20 19 18 17 15 14 12 12 13 15 17 19 21 22 23 24 24 23 22 24 27 30 31 31 31 31 30 28 28 28 27 25 24 26 26 27 27 27 26
28 30 32 34 38 42 46 48 48 47 45 44 42 39 36 31 25 21 18 17 15 15 16 16 18 21 24 25 28 33 32 31 31 31 32 33 33 33 33 33 33 32 30 29 28 27 26 24 22 20 18 17 16 15 15 14 13 13 13 14 16 17 19 21 23 24 23 22 24 27 29 30 30 29 29 28 27 26 26 25 24 23 24 24 25 25 24 23
26 27 30 34 39 43 44 44 43 41 39 38 35 32 28 24 20 18 18 18 18 19 21 22 23 25 27 28 31 34 32 33 33 33 34 34 34 34 33 33 32 31 29 29 28 26 25 24 22 20 18 16 14 12 11 12 13 13 14 15 16 17 19 21 23 24 23 22 23 26 27 28 28 28 26 26 25 25 25 24 23 23 22 22 22 23 22 20
23 26 31 35 39 40 40 38 37 35 33 31 28 26 22 19 18 18 20 22 24 26 28 30 31 32 33 34 37 37 36 36 36 36 37 36 36 35 34 33 31 30 29 28 27 25 23 22 20 19 18 15 13 12 10 10 10 10 12 14 16 17 19 22 24 24 23 23 24 25 26 26 26 25 24 23 23 23 24 23 23 23 23 22 23 23 22 20
22 27 31 35 37 36 34 33 31 28 27 25 23 21 19 19 20 22 25 27 30 33 35 36 37 38 39 41 42 42 42 42 42 42 41 41 39 38 36 34 32 31 30 28 26 24 22 20 18 17 15 14 12 11 10 9 10 10 11 13 15 16 18 21 23 22 21 22 24 25 25 25 25 24 22 22 22 23 23 23 23 23 22 22 23 23 22 22
22 27 30 33 33 31 29 27 24 22 21 20 19 20 20 22 24 27 29 32 35 38 39 40 41 42 44 46 46 46 47 47 47 47 46 45 44 42 41 39 38 36 34 32 30 27 25 22 20 17 14 12 9 7 7 8 10 11 13 14 15 16 17 19 21 20 20 21 20 22 24 23 24 22 21 21 22 22 22 21 22 22 22 22 22 22 23 23
22 26 29 30 28 25 23 21 19 18 18 18 19 22 24 26 29 31 34 37 39 42 44 44 45 45 47 47 48 48 49 49 49 49 49 48 47 47 46 45 45 43 42 40 37 34 31 28 25 22 18 15 11 7 3 2 5 9 13 15 17 18 18 19 22 22 21 21 20 21 24 24 23 21 20 21 21 22 20 19 21 22 21 22 22 22 23 23
22 25 27 26 23 20 18 16 15 15 16 18 21 24 27 30 32 35 38 41 43 46 47 47 48 48 49 49 49 50 50 50 50 50 50 50 50 50 50 49 49 48 47 46 44 42 39 36 33 29 25 20 16 11 7 3 4 7 11 14 17 20 20 19 22 24 23 23 23 23 25 24 23 21 20 21 21 21 20 19 21 21 21 21 21 22 23 23
21 23 24 21 18 15 13 12 12 14 17 20 23 26 29 32 35 38 41 43 45 47 48 48 49 50 50 50 51 51 51 51 52 52 52 52 52 51 51 51 51 50 50 48 47 46 44 42 39 36 32 28 23 17 12 7 4 7 11 14 15 18 20 20 23 26 25 26 26 26 26 25 24 22 21 22 22 21 20 19 20 19 20 20 21 21 22 23
20 21 20 17 13 11 10 9 11 14 18 22 25 28 31 33 36 38 41 43 44 46 47 47 48 50 50 50 51 51 51 52 52 52 52 52 52 52 52 52 51 51 51 50 50 49 48 46 45 42 39 35 30 24 18 12 7 5 10 14 15 15 17 21 25 27 27 28 28 28 28 27 25 24 24 24 23 22 21 20 19 19 20 20 21 22 22 22
19 18 16 12 9 7 7 8 11 15 19 23 26 29 31 33 35 37 40 41 43 44 45 45 47 48 48 48 48 48 49 49 49 49 49 50 50 50 50 50 50 51 51 51 51 51 51 50 49 47 44 40 36 31 25 18 11 6 7 13 16 16 17 20 23 25 28 30 30 29 29 28 26 26 26 25 24 23 23 22 21 20 20 21 22 22 22 22
17 15 12 8 5 4 5 8 12 16 19 22 25 28 30 32 34 36 38 39 41 43 43 44 45 45 45 45 45 45 46 46 46 46 47 47 47 47 48 48 49 49 50 50 50 51 51 51 51 49 47 45 41 37 31 24 16 7 6 11 15 17 19 20 23 25 26 29 31 30 30 28 27 26 25 25 25 25 24 22 21 20 21 21 21 22 21 18
15 12 8 4 2 3 4 8 13 16 18 22 24 27 28 30 32 34 36 37 39 41 41 42 42 43 43 43 43 43 43 44 44 45 45 45 45 45 45 46 47 48 48 48 48 49 49 50 50 51 51 50 47 43 37 31 22 11 2 10 16 18 18 19 23 25 25 27 28 29 30 29 27 25 23 24 25 25 24 23 22 21 21 21 21 22 19 17
12 9 4 1 2 3 5 9 12 15 18 21 23 25 27 28 30 32 34 36 38 39 39 40 40 40 41 41 41 41 42 43 43 43 43 43 44 43 44 44 45 45 45 45 46 47 48 50 51 53 54 54 53 50 45 38 30 19 6 5 15 20 21 18 17 21 24 24 23 23 26 28 26 24 22 22 23 24 24 24 23 22 21 21 21 22 21 21
10 6 1 3 4 4 6 9 12 15 18 19 22 24 25 26 28 30 33 34 36 37 37 38 38 39 39 39 39 40 41 41 42 42 42 42 42 41 42 42 43 43 43 45 46 47 49 50 51 52 54 55 55 54 50 45 40 29 16 6 10 17 21 21 17 18 22 21 20 22 25 25 23 22 22 22 23 24 24 24 23 22 21 21 22 24 25 24
6 2 3 5 5 5 7 9 12 15 16 18 20 22 23 25 26 28 31 32 33 34 35 36 37 37 38 38 38 40 40 40 41 41 41 41 41 41 41 42 42 43 44 44 45 47 47 47 49 50 52 53 53 55 54 50 48 40 28 16 10 11 17 22 20 17 18 18 18 19 21 20 19 20 21 22 22 22 22 21 21 22 22 23 24 26 26 24
2 2 5 7 7 7 7 10 12 14 15 16 18 20 21 23 25 26 28 30 31 32 33 35 35 35 37 37 38 38 39 39 40 40 40 41 41 41 42 42 42 43 43 43 44 44 44 45 47 48 48 49 50 55 56 54 53 48 37 27 18 11 14 21 21 19 19 20 19 16 16 18 18 18 19 19 19 19 19 20 21 22 23 24 26 27 25 24
1 5 8 8 8 8 8 10 12 14 14 15 17 19 20 21 23 25 27 28 29 30 32 33 33 34 36 36 37 37 38 38 39 39 40 40 41 41 41 41 42 42 42 42 43 43 43 44 45 45 45 46 50 55 57 56 56 53 45 37 28 16 11 19 22 20 18 16 15 15 15 16 16 15 14 13 13 15 17 20 21 23 24 25 26 26 25 24
4 7 9 9 9 9 10 11 13 14 15 16 17 18 20 21 22 24 26 28 29 30 31 32 32 33 35 35 36 37 37 37 37 38 39 40 40 40 40 40 41 41 41 42 42 42 43 43 43 44 44 47 50 53 54 57 58 56 51 44 37 27 18 17 18 14 12 11 10 10 11 11 11 11 11 10 10 13 16 19 22 24 26 26 26 26 25 24
7 10 11 10 10 10 11 13 14 15 15 16 17 19 20 22 23 25 26 28 29 30 31 31 31 33 34 34 35 35 35 36 36 37 38 38 38 38 38 39 39 40 40 40 41 41 42 42 43 44 45 47 49 50 51 55 56 56 55 50 44 38 30 21 16 13 12 11 9 6 5 5 7 8 9 9 9 11 15 18 22 25 26 26 26 27 26 26
10 11 12 11 11 12 13 14 14 15 15 16 17 19 21 22 24 25 27 28 29 30 31 31 32 33 34 33 34 35 35 35 36 36 36 36 36 36 37 38 38 38 38 39 39 40 40 41 42 44 45 46 47 46 47 51 53 53 54 53 49 44 38 31 23 18 15 12 9 6 2 0 3 5 6 7 7 10 14 17 20 23 24 24 25 27 27 27
12 13 13 12 12 13 14 14 14 15 15 16 17 18 20 22 23 25 26 27 28 30 30 31 32 33 33 33 34 34 34 34 34 34 35 35 35 35 36 37 37 37 38 38 38 38 39 40 41 42 44 45 45 45 45 47 48 49 52 52 51 48 45 41 36 31 26 22 17 13 9 6 2 2 3 3 5 9 13 16 18 21 22 23 25 27 28 29
14 14 14 13 13 14 14 14 14 15 15 16 16 18 20 21 22 24 24 26 28 29 29 31 32 32 32 33 34 33 33 33 33 33 34 35 35 36 36 36 36 36 37 37 37 38 38 39 40 41 42 42 43 43 43 44 45 45 48 49 49 49 49 47 44 41 37 33 29 25 21 17 13 8 4 2 3 6 11 16 19 21 23 24 25 27 29 32
16 15 15 14 14 15 15 14 14 15 15 15 16 17 19 20 21 22 23 25 27 28 28 29 30 31 32 33 33 33 33 33 33 34 35 35 36 36 36 35 35 36 36 36 36 37 37 38 38 39 39 39 41 41 41 43 43 43 43 45 45 46 47 46 45 44 41 39 36 33 31 28 24 20 16 11 7 4 4 10 16 21 24 25 27 29 31 33
17 17 16 15 15 15 15 15 15 15 15 15 15 16 18 19 20 21 22 23 25 25 26 27 28 30 30 31 32 32 32 33 33 34 34 35 35 35 35 35 35 35 35 35 35 35 36 36 37 37 36 37 39 39 39 40 41 41 41 41 41 41 41 42 42 41 41 40 38 37 35 33 31 28 25 21 17 13 9 4 6 11 15 18 20 21 21 21
18 18 17 16 16 16 16 15 15 15 14 14 14 15 16 18 19 19 20 21 22 22 24 25 27 27 28 29 30 31 31 32 32 33 33 34 34 34 34 35 35 35 34 34 34 34 34 34 35 34 34 35 36 36 36 38 39 39 39 39 38 37 37 37 37 37 37 36 36 36 35 34 33 31 29 26 24 21 18 15 11 8 5 5 6 8 10 11
20 19 18 17 17 17 17 16 15 14 13 12 13 14 15 16 17 17 18 18 18 19 21 23 24 25 26 28 28 29 30 31 32 32 33 33 33 33 33 34 34 34 34 34 33 33 33 33 33 33 33 35 35 34 34 35 36 36 36 36 36 35 35 34 33 33 33 33 32 32 32 32 31 30 29 28 26 25 23 21 20 18 17 16 16 17 17 18
21 20 19 18 18 18 18 16 15 13 12 12 12 13 14 14 15 15 15 16 16 17 18 20 22 24 25 26 27 28 29 30 31 32 32 32 33 33 33 33 33 34 34 33 33 33 33 33 32 32 33 33 33 32 32 33 33 33 33 33 33 34 33 33 32 31 30 30 29 29 29 28 28 27 27 26 26 25 24 24 23 23 23 23 24 24 24 25
22 21 20 20 19 19 19 17 15 13 12 12 12 12 13 13 13 13 13 14 14 15 16 18 20 22 23 24 25 26 27 28 29 30 31 31 32 32 33 33 33 33 33 33 33 33 32 32 32 32 32 31 30 30 30 31 31 31 31 30 31 31 31 31 31 30 29 28 27 26 25 25 25 24 24 23 23 23 24 24 24 25 25 26 26 27 28 29
24 23 22 21 20 20 20 18 15 13 12 12 12 11 12 11 11 10 11 12 12 13 14 15 17 19 21 23 24 25 26 27 28 29 30 30 31 32 32 32 33 33 33 33 33 33 32 32 31 31 31 30 29 29 28 29 29 29 29 29 29 29 29 29 29 28 28 27 26 24 23 23 22 22 22 22 22 22 22 23 23 24 24 25 26 28 29 30
25 24 23 23 22 21 20 18 16 15 13 12 11 10 10 9 8 8 9 10 11 11 12 13 15 17 19 21 22 23 24 25 26 27 28 29 30 31 32 32 32 33 33 33 33 33 32 32 31 31 30 30 29 29 28 27 27 27 27 27 27 27 27 27 27 27 27 26 26 25 24 22 21 21 21 21 21 21 21 22 22 23 24 25 26 27 29 30
27 26 25 24 23 22 21 19 17 16 14 12 10 8 7 6 6 6 7 8 9 10 10 12 13 15 17 19 20 21 22 23 24 25 26 28 29 30 31 31 32 32 32 32 33 32 32 32 31 31 30 29 29 28 27 26 26 25 25 25 25 26 26 26 25 25 25 25 25 25 24 23 22 21 20 20 21 21 21 22 22 23 24 24 25 27 28 29
28 27 26 25 24 23 21 20 18 16 15 13 10 8 6 4 3 4 6 7 7 8 9 10 12 13 15 17 18 18 19 21 22 23 25 26 28 29 29 30 31 31 31 32 32 32 32 31 31 30 30 29 28 28 27 26 25 25 24 24 24 24 24 24 24 24 24 23 23 23 23 24 23 23 22 21 21 21 21 22 22 23 24 24 25 26 27 29
29 28 27 26 25 24 22 20 19 17 15 13 11 9 7 4 2 2 4 5 6 7 7 8 10 11 13 15 16 17 18 19 20 22 23 25 26 27 28 29 30 30 31 31 31 31 31 31 30 29 29 28 28 27 27 26 25 24 24 23 23 23 23 23 23 23 23 23 22 22 22 22 23 23 23 22 21 21 21 21 22 23 24 25 26 27 28 30
29 29 28 27 26 25 23 22 20 18 17 15 12 10 8 5 3 0 2 4 5 5 6 7 8 10 11 13 14 16 17 18 19 20 22 23 24 26 27 28 29 30 30 30 30 31 31 30 30 29 28 27 27 26 26 25 24 24 23 23 22 22 22 22 22 22 22 22 21 21 21 21 22 22 23 23 22 21 21 21 22 23 24 25 27 28 30 31
30 30 29 28 27 26 25 23 22 20 18 16 13 11 9 7 5 2 1 1 3 4 5 6 8 9 11 12 14 15 16 17 18 19 21 22 23 25 26 27 28 29 30 30 30 30 30 30 29 28 27 27 26 25 25 24 24 23 22 22 22 22 22 22 22 21 21 21 21 21 20 20 20 21 22 23 23 23 23 23 23 23 25 26 28 30 31 31
31 30 29 28 28 27 26 25 23 21 19 17 14 12 10 9 7 4 3 2 2 3 4 6 7 9 10 12 13 14 16 17 18 19 20 22 23 24 25 27 28 29 29 30 30 30 30 30 29 28 27 27 26 26 25 24 24 23 23 22 22 23 22 22 22 22 21 21 21 21 21 20 20 21 22 23 24 25 25 25 25 25 26 27 28 30 31 32
31 31 29 28 28 27 27 26 25 23 20 18 16 14 12 10 8 6 5 4 3 3 4 5 7 8 10 11 13 14 16 18 19 20 21 22 23 24 25 27 28 29 29 30 30 30 30 30 29 28 27 27 27 27 26 25 25 24 24 23 23 23 23 23 23 23 22 22 21 21 21 21 21 21 22 24 25 26 27 27 27 26 26 27 28 30 31 33
32 31 30 29 28 28 27 26 25 24 22 19 17 15 14 12 10 8 7 6 5 4 4 5 7 8 9 11 12 14 16 18 19 20 21 22 23 24 25 26 28 29 29 30 30 31 31 31 30 29 28 27 27 27 27 27 26 25 24 24 23 23 23 24 24 24 24 24 23 22 22 22 22 23 23 25 26 27 28 28 28 28 28 28 29 30 32 34
33 32 31 30 29 29 28 27 26 25 23 20 19 17 15 13 11 10 9 8 7 7 6 6 7 9 10 11 13 14 16 18 19 20 21 22 23 24 25 26 27 28 29 30 31 31 32 32 32 31 29 28 27 27 27 27 26 26 25 25 24 24 24 24 25 25 24 24 24 23 23 23 23 24 24 25 26 27 28 29 30 29 29 29 29 31 33 36
33 32 32 31 30 30 29 28 27 25 23 22 20 18 17 15 13 12 11 10 10 9 9 8 9 10 11 12 14 15 16 18 19 20 22 22 23 24 25 26 27 28 29 30 31 31 32 32 32 31 30 29 28 27 27 26 26 25 25 24 24 24 23 23 24 24 24 24 24 24 24 24 24 25 25 26 27 28 29 30 30 30 30 30 30 32 34 36
34 33 32 32 31 30 29 29 27 26 25 23 21 20 18 17 15 14 13 12 12 12 11 11 11 11 12 13 15 16 17 18 19 20 22 23 24 25 26 27 28 28 29 30 30 31 32 32 32 31 30 30 29 28 27 26 26 25 24 24 24 24 24 23 23 24 24 24 24 24 24 24 25 25 26 27 28 29 29 30 31 31 31 31 31 32 34 37
35 34 34 33 32 31 30 29 28 27 26 24 23 21 20 18 17 16 15 15 14 14 14 14 14 14 14 15 17 18 19 19 20 21 22 24 25 26 27 28 29 30 30 31 31 32 32 32 31 31 31 31 30 29 28 26 25 25 24 24 25 25 26 25 24 24 25 25 25 25 25 25 25 26 26 27 28 29 30 31 31 31 31 30 30 32 34 36
36 36 35 33 32 31 31 29 28 28 27 25 24 23 22 20 19 18 17 17 17 17 17 17 17 16 16 17 19 20 21 21 22 23 23 25 26 27 28 29 30 31 32 32 33 33 32 31 31 31 31 31 31 30 29 27 26 26 26 26 27 28 29 28 27 26 26 26 26 26 26 25 25 25 26 27 28 29 29 30 30 31 31 30 30 31 33 36
Wind_Direction
259 265 270 278 285 289 294 296 299 301 303 304 304 304 305 307 309 312 314 315 315 316 317 317 315 313 312 313 314 313 311 309 307 306 308 312 319 324 322 315 305 294 280 267 254 246 241 238 236 234 234 234 234 235 235 234 234 233 233 233 233 233 233 233 233 232 233 234 234 235 240 244 247 251 254 257 263 266 266 266 264 262 258 254 253 253 255 255
263 270 281 288 292 294 298 300 301 303 304 304 304 306 308 311 314 316 316 317 318 319 319 316 315 315 316 318 319 318 316 316 317 320 327 347 9 14 7 359 352 344 328 256 218 217 219 222 224 225 226 228 229 229 229 229 228 227 226 226 226 226 227 228 227 227 228 230 230 232 238 243 247 253 259 263 267 265 260 261 264 264 262 259 260 261 259 257
268 277 288 290 293 297 300 301 303 304 304 305 307 310 313 316 317 318 319 320 321 320 318 317 317 319 322 325 327 324 323 329 338 344 357 31 51 50 43 40 44 58 82 102 114 128 148 167 185 196 203 209 213 215 217 217 217 217 216 217 219 219 220 221 221 223 224 226 226 229 240 246 250 257 263 262 257 256 255 257 261 262 265 267 267 267 265 263
274 284 289 291 296 300 301 302 304 304 305 308 311 314 317 319 320 321 322 322 321 319 318 321 323 325 330 336 338 334 334 354 13 20 29 49 65 67 63 58 57 63 73 89 104 116 126 138 151 162 172 180 187 193 197 200 202 204 206 209 210 211 213 215 216 218 220 224 225 225 235 245 249 248 247 242 236 247 256 259 263 266 270 274 269 261 259 258
280 287 289 294 299 300 301 303 304 306 309 312 315 318 320 322 323 324 323 322 320 320 324 328 330 334 343 354 355 352 1 25 37 44 51 56 66 73 73 71 69 69 71 76 85 95 106 117 129 140 152 160 167 173 178 182 186 190 195 199 201 204 208 211 214 217 219 222 224 224 231 235 238 238 235 231 229 232 243 251 257 263 265 263 253 246 244 241
283 288 291 296 299 300 303 305 306 310 313 316 319 321 324 326 326 325 323 321 322 326 334 338 340 347 2 14 15 17 30 43 48 54 60 63 67 71 75 77 76 77 77 79 80 83 88 94 101 110 123 136 147 156 162 168 174 181 187 193 197 202 208 211 214 218 220 221 218 215 223 224 227 235 235 231 229 227 229 236 242 247 248 246 244 242 241 241
285 291 295 298 299 303 306 308 311 315 317 319 323 326 328 328 327 325 323 325 328 335 345 349 356 6 22 31 31 37 45 50 52 56 62 67 69 70 71 72 73 75 77 79 82 85 88 90 93 95 100 109 121 135 147 159 170 178 186 193 199 205 210 214 217 219 220 218 211 208 217 221 222 228 231 231 229 226 224 228 230 232 237 242 245 248 246 243
289 294 297 300 304 307 310 313 316 318 321 324 328 330 330 329 327 326 328 333 337 347 358 4 15 26 39 44 45 50 53 53 54 57 61 64 67 69 69 68 69 71 73 76 79 83 86 90 94 97 100 103 110 120 135 150 165 176 186 194 200 207 211 214 217 219 220 214 207 211 217 221 223 225 228 231 230 228 226 225 223 221 224 229 234 240 242 241
292 296 300 305 309 312 316 318 319 322 326 329 332 333 332 330 330 333 340 347 351 2 11 20 32 42 50 53 54 57 57 57 58 58 60 63 66 69 71 70 69 69 70 72 73 76 79 83 88 95 101 107 113 119 129 141 157 173 185 195 200 206 211 214 217 218 217 212 208 213 218 221 224 226 230 232 232 230 229 226 221 217 218 219 222 229 235 238
293 300 306 310 314 317 319 321 323 327 331 334 335 335 334 334 339 348 0 9 14 23 31 37 43 51 57 57 59 62 62 61 61 62 63 64 66 68 71 72 72 71 71 71 71 73 74 75 78 83 89 99 110 121 131 141 153 168 181 194 201 208 211 214 217 216 213 209 212 218 219 222 225 227 230 232 232 232 231 228 223 219 217 216 220 226 231 235
297 306 312 315 318 321 323 325 329 333 336 338 338 339 340 344 355 11 24 33 38 45 49 50 53 57 61 62 63 66 66 66 66 65 66 66 66 66 67 68 70 72 73 73 73 73 75 76 78 80 83 88 96 108 124 138 152 166 179 191 198 204 210 214 217 217 213 207 212 222 223 225 227 227 230 233 233 233 234 232 227 223 219 215 218 225 226 226
305 314 317 320 322 325 327 330 334 338 341 343 345 349 354 4 20 33 43 50 54 57 60 61 62 63 65 66 67 69 69 69 69 68 68 67 66 66 65 65 66 68 70 72 72 73 75 77 81 84 88 93 97 104 117 134 151 167 182 195 203 207 210 216 219 219 216 211 211 218 223 225 228 227 228 232 234 236 237 236 232 227 222 216 216 222 220 213
314 319 321 324 326 328 331 334 339 345 349 352 359 7 16 30 43 52 58 62 65 67 68 69 69 69 70 70 71 72 71 71 70 70 69 69 69 69 69 69 68 67 67 68 69 69 70 72 75 81 88 97 106 115 127 141 157 170 183 199 207 213 219 224 227 226 222 219 218 220 222 223 225 225 225 230 233 236 237 236 236 232 227 223 221 222 219 211
320 322 324 328 330 331 334 340 347 355 1 8 19 30 41 51 58 64 67 70 71 72 72 72 72 72 72 73 73 73 73 73 72 72 72 72 72 72 72 72 72 70 69 68 67 65 65 64 64 66 71 79 92 109 134 155 169 177 186 199 203 210 222 229 231 231 227 223 223 226 224 225 226 223 224 228 231 234 236 238 239 237 233 229 226 224 222 216
322 324 329 331 332 334 339 346 358 8 19 29 39 49 56 62 66 69 72 73 73 74 73 72 72 72 72 73 73 73 73 72 72 71 71 71 70 70 70 70 70 69 68 67 66 64 63 61 59 57 56 55 56 60 72 167 198 199 198 201 203 208 217 226 227 226 227 220 215 224 225 225 225 219 219 224 228 232 235 238 241 239 238 235 231 227 225 223
325 329 332 333 334 338 345 355 11 25 38 47 54 60 65 68 70 72 73 73 73 73 73 72 72 72 72 73 73 73 72 72 71 70 69 69 68 67 67 66 66 65 65 64 63 62 61 59 58 57 54 50 46 42 32 356 276 248 231 218 212 215 216 222 228 226 226 220 211 217 222 221 221 216 214 220 225 230 232 236 240 240 240 240 236 232 229 227
328 333 334 334 337 343 352 7 28 43 54 59 63 67 69 70 72 73 73 73 73 73 73 73 73 72 72 72 72 72 72 71 71 70 69 68 67 66 66 65 65 64 63 62 62 60 59 57 56 54 52 49 45 40 32 16 317 267 255 242 230 228 225 223 227 226 226 226 218 218 221 218 217 213 211 215 220 227 229 233 237 238 239 238 236 235 233 232
332 336 335 335 340 349 1 24 46 57 64 67 68 70 71 72 73 74 74 74 74 73 73 72 72 72 71 70 70 70 70 70 69 69 68 67 67 66 65 65 64 64 63 62 60 59 58 56 54 52 49 47 44 39 33 23 354 285 254 246 236 229 229 230 229 224 223 227 225 223 223 219 214 210 208 210 213 220 225 228 230 230 232 234 233 232 234 235
336 338 336 338 345 355 14 43 59 67 70 71 71 72 72 72 73 73 74 74 74 73 73 72 72 72 71 70 70 70 69 69 69 68 68 67 67 66 66 65 65 64 63 62 60 59 57 55 53 50 48 45 42 39 34 28 10 322 255 239 231 223 225 230 231 225 221 225 226 227 227 224 217 210 207 206 208 214 219 223 224 224 225 228 231 231 231 232
338 338 338 340 352 9 34 59 70 72 72 72 72 71 71 71 72 72 73 73 73 73 73 72 71 71 71 71 70 70 70 70 70 69 68 67 66 66 65 64 64 63 62 61 60 58 57 54 52 50 47 44 41 38 35 31 24 354 264 227 220 220 222 225 228 226 223 223 225 227 230 229 225 216 209 205 205 210 215 218 220 222 223 223 227 229 228 226
338 338 341 347 17 42 58 71 75 74 73 72 71 70 70 70 70 71 72 72 72 72 72 71 71 70 71 71 71 71 71 70 69 68 67 66 65 64 63 62 61 60 59 59 58 57 56 54 52 49 46 42 39 36 34 32 30 21 298 216 206 206 213 222 228 227 223 224 226 229 231 233 232 226 217 210 207 209 212 214 215 219 221 219 220 219 215 216
337 340 347 41 92 82 75 76 76 75 73 72 71 71 70 69 71 72 72 72 71 71 71 71 71 71 70 70 70 70 70 69 69 68 67 66 65 64 63 62 61 60 59 58 57 56 54 52 50 48 44 41 37 34 32 32 32 33 43 187 194 196 202 205 215 221 219 222 225 230 233 234 235 234 228 221 215 212 212 213 213 215 218 218 215 211 209 214
335 343 32 128 122 103 86 80 77 73 71 69 70 69 68 68 68 69 70 70 70 70 71 71 71 70 70 70 69 69 68 68 68 67 67 66 65 64 63 62 61 60 57 56 54 53 51 50 48 47 44 41 37 34 33 34 36 37 46 93 169 189 198 189 187 207 213 214 219 227 233 233 233 234 233 229 223 218 215 214 213 213 216 217 215 213 214 216
332 352 134 141 132 114 96 87 79 73 71 68 68 68 67 66 65 65 66 66 68 69 69 70 70 70 70 69 68 67 67 66 66 66 65 65 64 63 62 60 59 58 56 54 53 52 50 49 49 48 45 42 39 37 35 35 38 40 46 62 109 156 183 183 179 191 202 207 211 219 231 233 230 229 229 230 228 224 220 215 213 213 216 218 218 219 220 221
321 136 144 146 137 123 106 93 83 77 75 71 70 69 68 68 68 68 67 68 68 68 69 69 68 69 69 68 67 67 66 65 65 64 63 62 61 60 59 58 57 56 55 54 53 52 51 50 49 48 47 45 43 41 39 38 40 42 46 54 68 108 163 173 167 169 183 199 205 211 227 230 228 229 230 233 233 229 223 216 214 215 217 220 223 227 228 229
200 149 149 148 139 129 112 99 90 84 81 78 75 74 73 73 72 72 71 71 70 69 68 68 68 68 67 67 66 65 64 63 62 62 61 60 58 57 57 56 56 56 54 54 53 53 51 51 50 50 49 47 46 44 42 41 43 44 47 52 59 74 134 161 163 165 172 188 200 208 224 231 234 239 243 246 243 233 224 216 215 218 220 222 226 233 237 239
170 154 153 148 140 129 115 104 97 92 88 85 82 81 80 78 76 75 73 72 70 69 69 68 68 67 66 65 64 63 62 61 61 60 59 58 57 56 55 55 55 55 54 53 53 52 51 51 51 50 49 48 48 46 44 44 46 47 49 53 59 67 89 132 152 153 149 161 182 199 220 236 244 252 257 260 253 240 227 219 219 222 226 227 229 236 242 246
168 158 154 149 141 130 120 110 102 98 94 90 88 85 82 80 77 75 74 72 71 70 70 69 68 68 66 64 63 62 60 59 59 58 57 56 55 55 54 54 54 53 53 52 52 51 50 50 50 50 49 48 49 48 47 47 48 49 52 55 59 65 73 93 115 118 122 138 151 168 205 238 248 258 269 274 268 249 233 226 226 231 235 236 236 240 245 248
169 160 156 151 143 134 125 115 107 102 97 93 89 86 82 79 77 76 74 74 72 71 70 70 69 67 66 65 64 62 60 58 57 57 57 56 55 55 54 53 53 52 51 51 51 50 49 49 48 49 48 49 50 49 49 50 50 51 54 57 60 65 71 79 88 92 94 98 99 101 98 255 248 261 277 287 279 256 241 235 235 239 245 246 245 249 254 257
170 164 160 153 147 140 130 119 110 105 100 95 90 86 82 79 77 75 74 74 73 71 70 69 68 67 67 67 65 64 61 60 59 58 58 57 57 55 54 53 52 51 50 49 49 48 48 48 47 48 48 49 50 50 50 51 51 52 55 57 60 64 68 71 73 74 74 73 73 71 64 55 37 295 279 285 276 255 242 236 236 243 252 256 257 261 264 267
172 167 163 157 151 145 135 123 115 109 103 97 92 87 84 80 77 75 74 74 72 71 70 69 69 69 68 67 67 67 65 63 61 60 58 57 55 55 54 53 51 51 50 48 47 46 46 46 46 46 46 48 49 49 50 52 52 52 54 56 58 61 63 65 67 67 68 68 68 68 68 67 64 59 51 10 297 261 243 237 238 245 254 262 267 271 275 278
174 170 167 162 156 151 141 129 121 113 107 101 96 92 88 84 80 77 74 73 72 71 70 69 69 68 66 66 65 65 64 62 61 59 57 55 53 53 52 52 51 50 49 48 47 46 45 44 44 44 44 45 48 48 49 51 52 52 54 56 57 59 61 63 65 65 66 66 67 67 67 67 66 64 62 56 43 17 281 254 251 253 259 267 275 281 285 288
177 173 172 167 161 157 148 135 126 119 112 107 102 98 94 88 83 79 75 72 72 71 70 69 67 66 65 64 63 62 61 59 58 57 56 54 52 51 50 50 50 49 48 47 47 46 45 44 44 44 43 43 46 46 47 50 51 51 53 55 56 58 60 62 63 65 65 66 66 66 66 66 65 65 63 62 59 53 42 4 291 274 273 278 285 291 295 299
179 176 175 172 167 162 153 141 132 126 120 114 109 103 97 91 85 80 76 73 72 71 71 69 67 65 65 64 62 62 61 59 58 57 56 54 52 50 49 48 48 48 47 46 46 46 45 45 44 44 43 43 44 43 44 47 50 50 51 54 55 57 58 60 61 63 64 65 65 66 66 66 67 67 67 66 66 66 64 62 58 50 27 2 352 350 351 351
182 179 179 177 172 167 159 148 140 134 128 122 116 108 100 93 88 82 77 73 71 71 70 69 68 66 64 63 61 60 59 58 58 56 55 53 51 49 47 46 45 45 45 45 44 44 44 44 44 43 42 43 43 41 41 43 46 48 49 51 53 55 56 57 58 59 61 62 62 63 64 64 65 65 65 65 66 66 65 65 63 61 56 50 44 37 31 26
184 182 182 181 176 171 165 158 149 143 136 128 122 113 105 96 89 84 78 72 68 67 67 67 66 65 63 62 60 58 57 56 55 54 53 52 50 48 46 44 43 43 43 43 42 42 42 42 42 42 42 42 42 41 40 41 42 43 45 47 49 51 53 54 54 54 55 56 57 58 59 60 60 60 60 60 59 59 57 56 53 50 46 42 38 33 29 25
185 183 183 182 179 175 171 166 160 153 145 135 127 119 110 101 91 84 77 70 64 61 62 62 63 63 62 61 60 57 55 54 52 52 51 50 48 47 45 43 41 40 40 40 40 40 40 39 39 40 41 41 41 40 40 40 41 40 40 42 44 46 48 50 51 51 51 51 52 52 53 54 54 53 53 52 52 50 49 47 44 42 39 35 32 29 25 21
186 184 184 184 182 179 176 173 169 162 154 144 136 127 117 107 96 85 76 69 63 59 58 60 62 62 61 60 58 56 54 52 51 49 48 47 45 44 43 40 39 38 38 37 37 37 38 38 38 38 38 39 38 38 37 38 38 38 37 38 39 41 42 44 46 47 47 47 48 48 48 48 47 46 45 45 43 42 41 39 38 36 34 31 28 26 23 20
186 185 185 185 184 183 180 179 175 170 163 156 149 140 128 115 100 86 75 67 62 58 58 58 60 60 58 57 56 54 52 50 48 46 45 44 42 41 40 38 36 35 34 34 34 33 34 35 35 35 36 35 35 35 35 34 34 34 34 34 35 36 37 38 39 40 41 42 42 42 41 41 40 39 38 37 36 34 33 31 30 28 27 25 23 22 20 18
187 187 186 186 186 185 184 182 180 177 171 166 162 155 144 129 109 91 77 67 61 58 57 56 55 56 55 54 53 52 50 47 44 42 41 40 38 37 36 35 33 32 31 30 30 30 30 31 31 32 33 33 33 33 33 32 31 31 30 30 30 31 32 32 33 34 34 34 35 35 34 34 32 31 30 29 28 27 26 24 23 22 20 19 18 17 16 14
189 188 188 188 188 188 188 186 185 182 178 176 174 173 168 153 124 93 77 67 62 59 57 53 51 50 49 49 48 47 45 42 40 37 35 34 33 32 31 30 30 29 28 27 27 27 27 27 27 28 29 29 30 30 31 30 29 28 27 27 27 27 27 27 27 27 28 27 28 28 28 28 27 25 23 21 20 19 19 18 17 16 15 13 12 11 10 10
191 190 189 190 191 191 192 192 189 186 184 185 185 187 189 188 174 85 66 54 50 55 55 51 47 45 43 42 41 40 38 35 33 31 29 28 27 27 26 25 25 25 25 24 23 23 24 24 24 24 24 24 25 26 27 27 27 26 24 24 23 24 24 23 22 21 21 20 21 21 21 21 22 21 19 17 14 12 11 10 10 10 9 8 7 7 6 6
193 193 191 191 193 194 195 196 195 191 190 193 196 198 201 207 221 246 50 38 33 37 43 41 37 36 35 34 33 31 30 28 25 24 23 21 21 21 20 20 19 20 20 20 20 19 20 20 20 20 21 21 20 21 21 22 23 23 22 21 20 20 20 19 18 16 15 13 13 15 15 15 16 16 14 13 11 9 6 4 3 3 3 4 3 3 3 2
194 195 193 193 195 197 198 200 199 197 196 198 203 207 210 216 227 242 293 3 9 12 21 24 23 23 23 23 22 21 20 19 17 16 16 15 15 15 15 14 14 15 15 16 16 15 16 16 15 15 16 17 16 16 16 16 17 17 17 16 15 15 14 13 13 11 8 7 7 8 9 9 9 10 10 8 7 6 4 1 359 358 358 359 360 360 359 358
195 196 195 195 197 199 201 203 203 202 202 203 207 213 216 223 231 240 253 279 320 342 357 7 8 9 10 10 10 9 9 9 8 8 9 9 9 9 9 9 9 9 9 10 10 10 11 11 11 11 11 11 10 10 10 10 10 10 10 10 10 8 6 5 5 4 3 2 2 2 3 3 3 4 5 4 2 2 1 360 358 356 355 355 355 356 355 354
195 197 197 197 199 201 204 206 207 207 207 208 211 216 221 228 235 242 251 261 273 300 329 346 352 354 356 357 357 358 358 358 358 360 2 1 2 3 2 3 3 3 4 4 4 5 6 6 6 7 6 6 5 4 4 4 4 4 3 3 3 1 359 358 358 358 358 358 359 358 357 357 358 360 0 359 358 358 357 357 356 354 353 351 350 351 351 353
196 197 198 200 202 203 205 208 209 210 212 212 215 219 223 229 237 243 248 254 262 277 300 323 333 338 340 342 345 347 348 348 349 351 353 354 355 356 356 357 357 358 358 359 359 360 360 0 1 2 3 3 2 0 359 359 359 359 358 357 358 357 355 353 353 354 354 354 354 354 353 353 353 354 356 355 355 355 354 353 353 352 351 348 347 347 349 352
198 199 200 202 204 205 206 209 211 212 215 216 218 222 226 231 236 242 246 251 259 269 285 302 313 320 325 328 333 336 337 338 339 341 344 346 347 349 350 351 352 353 354 354 354 355 355 355 356 357 358 359 360 358 356 355 355 356 355 354 354 354 353 351 349 350 350 350 350 349 349 349 349 349 350 350 351 351 350 350 350 349 349 347 345 346 348 350
201 201 202 205 206 207 208 210 212 214 216 218 221 224 228 232 237 241 245 249 257 266 276 288 297 306 314 320 325 328 328 330 332 334 336 339 341 342 344 346 347 348 349 349 350 350 350 351 352 352 353 354 356 355 354 353 353 354 353 353 352 351 351 350 347 345 345 345 345 345 345 345 345 345 345 345 345 346 347 347 347 347 346 345 344 345 346 347
204 205 206 208 209 209 210 212 214 215 218 219 222 226 230 234 238 241 244 247 253 262 270 278 288 298 308 317 321 322 322 325 327 329 331 333 335 337 339 340 342 343 344 345 345 346 346 347 348 348 348 349 351 353 353 353 352 352 351 350 348 346 346 345 342 340 339 338 339 339 340 340 340 340 339 339 340 342 344 345 345 344 344 343 343 343 344 345
207 208 209 210 211 212 212 214 215 218 220 222 224 228 231 234 238 242 244 247 252 259 267 274 282 292 303 311 313 314 317 321 324 325 326 328 331 333 334 336 337 338 340 341 341 342 343 344 344 344 345 346 348 350 351 351 350 349 347 345 343 340 338 337 336 333 332 331 331 332 333 333 334 333 333 334 336 338 341 342 341 341 341 341 341 342 342 343
210 211 212 213 214 215 215 216 218 220 223 225 227 230 233 235 239 242 245 249 253 258 265 272 279 288 297 303 305 308 313 317 318 321 323 325 327 329 330 331 333 334 336 337 338 339 340 341 341 341 342 343 346 348 349 347 346 344 343 341 338 335 332 331 330 329 327 325 325 325 326 327 327 327 328 329 332 334 337 338 338 337 338 339 340 340 341 341
Height
10764 10762 10760 10759 10756 10754 10751 10748 10745 10742 10738 10735 10731 10727 10722 10716 10710 10703 10695 10687 10680 10673 10666 10660 10654 10649 10643 10638 10632 10627 10622 10617 10613 10608 10604 10600 10597 10594 10592 10591 10590 10590 10590 10590 10591 10593 10595 10597 10600 10603 10606 10609 10613 10617 10622 10627 10632 10637 10642 10647 10651 10654 10657 10659 10663 10665 10667 10669 10675 10681 10683 10682 10684 10686 10689 10694 10698 10700 10699 10698 10699 10702 10704 10706 10706 10707 10708 10707
10761 10760 10758 10756 10754 10751 10748 10745 10742 10738 10734 10730 10726 10721 10716 10710 10703 10695 10688 10681 10674 10668 10663 10657 10652 10646 10641 10635 10630 10625 10620 10615 10611 10606 10602 10599 10596 10594 10592 10591 10590 10590 10590 10590 10591 10593 10595 10597 10600 10602 10606 10609 10613 10616 10621 10625 10630 10635 10639 10643 10647 10650 10652 10655 10658 10661 10663 10666 10671 10678 10680 10681 10686 10688 10691 10697 10700 10699 10698 10697 10698 10700 10703 10705 10707 10708 10708 10707
10760 10759 10756 10754 10751 10748 10745 10742 10738 10734 10730 10726 10721 10716 10710 10704 10696 10689 10682 10676 10671 10665 10660 10655 10649 10644 10639 10634 10629 10624 10619 10614 10610 10605 10602 10599 10596 10594 10592 10591 10591 10591 10590 10591 10591 10593 10594 10596 10599 10602 10605 10608 10611 10615 10619 10624 10628 10632 10636 10640 10642 10646 10648 10651 10654 10657 10660 10663 10668 10678 10681 10682 10689 10692 10694 10697 10697 10695 10694 10695 10696 10699 10702 10706 10710 10711 10709 10707
10758 10757 10754 10751 10749 10745 10742 10739 10735 10731 10726 10722 10717 10711 10704 10698 10691 10685 10678 10673 10668 10663 10658 10653 10647 10642 10637 10633 10628 10623 10619 10614 10610 10606 10602 10599 10596 10594 10593 10593 10592 10592 10592 10592 10592 10593 10594 10596 10598 10601 10604 10607 10610 10614 10618 10622 10626 10630 10633 10636 10639 10642 10644 10647 10650 10653 10657 10660 10666 10678 10684 10685 10689 10691 10691 10691 10691 10693 10694 10695 10696 10698 10702 10707 10710 10711 10710 10710
10756 10754 10751 10749 10746 10742 10739 10736 10731 10727 10723 10717 10712 10706 10699 10693 10687 10681 10675 10670 10666 10661 10656 10651 10646 10641 10637 10632 10628 10624 10619 10614 10610 10607 10604 10601 10598 10596 10595 10594 10594 10594 10594 10594 10595 10595 10596 10598 10600 10602 10604 10607 10610 10613 10617 10621 10625 10628 10630 10633 10636 10638 10640 10643 10647 10649 10653 10658 10667 10677 10682 10683 10683 10683 10685 10687 10690 10694 10696 10697 10697 10699 10703 10704 10702 10702 10705 10707
10753 10752 10750 10747 10743 10740 10736 10733 10728 10724 10719 10713 10707 10701 10695 10689 10683 10678 10673 10668 10664 10660 10655 10650 10645 10641 10637 10633 10629 10625 10619 10615 10612 10609 10606 10603 10601 10599 10597 10596 10596 10596 10596 10596 10597 10598 10599 10601 10603 10605 10607 10609 10612 10615 10618 10621 10623 10626 10628 10631 10633 10635 10638 10641 10643 10647 10651 10658 10669 10675 10674 10675 10677 10678 10680 10683 10687 10691 10693 10695 10696 10698 10698 10695 10692 10693 10697 10699
10752 10750 10748 10744 10741 10737 10734 10730 10725 10721 10715 10709 10703 10697 10692 10686 10680 10675 10671 10666 10663 10658 10654 10650 10645 10641 10637 10633 10630 10626 10620 10617 10615 10612 10609 10607 10604 10602 10601 10600 10599 10599 10599 10599 10600 10601 10602 10603 10605 10607 10610 10612 10614 10617 10619 10621 10623 10626 10628 10630 10632 10634 10637 10639 10642 10646 10651 10659 10668 10670 10669 10670 10673 10675 10676 10677 10682 10686 10688 10690 10692 10694 10692 10688 10687 10688 10691 10693
10750 10749 10745 10742 10738 10735 10731 10727 10722 10717 10711 10705 10700 10694 10689 10684 10679 10674 10669 10665 10662 10658 10654 10650 10646 10642 10637 10634 10632 10626 10621 10620 10618 10615 10613 10610 10608 10606 10604 10604 10604 10603 10603 10603 10603 10604 10605 10606 10607 10609 10611 10614 10616 10618 10621 10623 10625 10627 10629 10631 10633 10634 10636 10639 10642 10645 10651 10658 10665 10667 10667 10668 10669 10670 10671 10673 10677 10680 10682 10684 10687 10688 10687 10686 10686 10686 10687 10690
10749 10746 10743 10740 10736 10733 10729 10724 10719 10714 10708 10702 10697 10693 10688 10683 10678 10673 10669 10665 10661 10657 10654 10651 10647 10643 10638 10636 10633 10626 10624 10623 10621 10618 10616 10614 10612 10610 10609 10608 10608 10607 10607 10607 10607 10607 10608 10609 10611 10612 10614 10616 10618 10620 10622 10624 10626 10628 10629 10631 10632 10634 10636 10638 10641 10645 10650 10657 10662 10664 10664 10664 10665 10666 10668 10670 10673 10675 10676 10679 10681 10683 10683 10684 10684 10684 10686 10687
10746 10744 10741 10738 10734 10731 10726 10721 10716 10711 10706 10701 10696 10692 10687 10683 10678 10673 10669 10665 10662 10658 10655 10651 10648 10644 10640 10638 10633 10628 10628 10626 10624 10622 10619 10617 10616 10614 10613 10612 10611 10611 10611 10611 10611 10611 10612 10613 10614 10616 10617 10619 10620 10622 10623 10625 10627 10629 10630 10631 10633 10635 10636 10638 10640 10643 10650 10656 10660 10660 10659 10660 10662 10664 10666 10668 10669 10671 10672 10674 10677 10679 10680 10682 10683 10683 10684 10686
10745 10742 10739 10736 10732 10728 10724 10718 10714 10709 10705 10700 10696 10692 10688 10683 10678 10674 10670 10666 10663 10659 10656 10652 10649 10645 10642 10640 10634 10631 10631 10629 10627 10625 10623 10621 10619 10618 10617 10616 10615 10615 10615 10614 10614 10615 10615 10616 10618 10619 10621 10622 10623 10624 10626 10627 10628 10630 10631 10632 10633 10634 10636 10637 10638 10642 10647 10654 10657 10657 10656 10658 10659 10661 10664 10666 10668 10669 10670 10672 10675 10676 10678 10681 10682 10681 10682 10685
10743 10740 10737 10734 10731 10726 10721 10717 10713 10708 10705 10701 10697 10693 10688 10684 10679 10675 10671 10668 10664 10661 10657 10654 10651 10648 10645 10641 10637 10636 10634 10632 10630 10628 10626 10624 10623 10622 10621 10620 10619 10619 10618 10618 10618 10618 10619 10620 10621 10622 10623 10625 10626 10627 10628 10629 10630 10631 10632 10632 10633 10634 10634 10635 10637 10640 10645 10649 10652 10653 10654 10656 10657 10659 10662 10664 10666 10667 10668 10671 10673 10674 10675 10678 10679 10678 10679 10683
10741 10738 10735 10732 10729 10724 10720 10716 10712 10709 10706 10702 10698 10694 10690 10685 10681 10677 10673 10670 10666 10663 10660 10657 10654 10651 10648 10644 10642 10640 10638 10636 10634 10632 10630 10628 10627 10626 10625 10624 10623 10623 10622 10622 10622 10622 10622 10623 10624 10625 10626 10627 10628 10628 10629 10630 10631 10632 10632 10633 10633 10634 10634 10635 10636 10639 10643 10646 10648 10650 10651 10652 10654 10657 10660 10662 10663 10664 10666 10669 10671 10672 10673 10674 10675 10675 10676 10678
10739 10736 10734 10731 10727 10723 10720 10716 10713 10711 10708 10704 10700 10696 10692 10688 10684 10680 10676 10673 10669 10666 10663 10661 10658 10655 10652 10649 10647 10645 10642 10640 10638 10637 10635 10634 10633 10631 10630 10629 10628 10627 10627 10626 10626 10626 10626 10626 10627 10628 10628 10629 10630 10630 10630 10631 10631 10632 10632 10632 10633 10635 10634 10634 10636 10638 10641 10644 10647 10647 10648 10650 10652 10655 10659 10660 10661 10662 10664 10667 10669 10670 10671 10671 10672 10672 10672 10673
10737 10735 10732 10729 10725 10722 10720 10717 10715 10713 10710 10707 10703 10698 10695 10691 10687 10683 10680 10676 10672 10669 10666 10664 10661 10658 10656 10653 10651 10649 10647 10645 10643 10642 10640 10639 10638 10636 10635 10633 10632 10631 10630 10630 10630 10630 10630 10629 10629 10630 10630 10630 10631 10631 10631 10631 10631 10632 10632 10632 10633 10634 10633 10634 10634 10636 10639 10642 10645 10645 10646 10648 10649 10653 10656 10658 10659 10660 10663 10667 10668 10668 10669 10669 10670 10670 10669 10669
10736 10733 10730 10727 10725 10722 10720 10718 10716 10714 10712 10709 10705 10701 10698 10694 10691 10687 10683 10679 10676 10672 10670 10668 10665 10663 10661 10658 10656 10654 10651 10649 10648 10646 10644 10643 10641 10640 10638 10637 10635 10634 10634 10634 10633 10633 10633 10632 10632 10632 10632 10632 10631 10631 10631 10631 10631 10631 10631 10631 10632 10632 10633 10634 10634 10635 10636 10638 10641 10641 10642 10645 10647 10651 10654 10656 10657 10659 10662 10665 10666 10666 10667 10668 10668 10667 10667 10666
10734 10732 10729 10727 10725 10723 10721 10719 10718 10716 10713 10710 10707 10704 10701 10697 10694 10690 10686 10683 10680 10676 10674 10672 10670 10667 10666 10663 10661 10659 10656 10654 10652 10650 10649 10647 10646 10644 10643 10641 10640 10639 10638 10638 10637 10637 10636 10636 10635 10634 10634 10634 10633 10632 10631 10630 10629 10629 10628 10629 10630 10631 10632 10633 10632 10633 10634 10635 10637 10638 10639 10642 10644 10648 10652 10654 10655 10657 10659 10662 10663 10665 10666 10666 10666 10665 10664 10664
10733 10730 10728 10726 10725 10723 10722 10720 10719 10717 10715 10712 10709 10706 10703 10700 10697 10693 10690 10686 10684 10680 10678 10676 10674 10671 10669 10667 10665 10663 10661 10658 10656 10655 10653 10652 10650 10649 10647 10646 10645 10644 10643 10642 10641 10641 10639 10638 10638 10637 10636 10636 10635 10633 10631 10630 10628 10626 10626 10625 10627 10630 10630 10630 10630 10632 10633 10633 10634 10635 10636 10638 10642 10646 10649 10651 10654 10656 10657 10659 10660 10662 10663 10664 10663 10662 10662 10661
10732 10729 10727 10726 10725 10724 10723 10722 10720 10718 10716 10714 10711 10709 10706 10703 10700 10697 10693 10690 10687 10684 10682 10680 10678 10675 10673 10671 10670 10668 10666 10664 10662 10660 10658 10657 10655 10654 10653 10652 10650 10649 10648 10647 10646 10644 10643 10641 10641 10640 10639 10637 10636 10634 10631 10628 10626 10623 10622 10622 10623 10626 10627 10627 10628 10630 10631 10631 10632 10633 10634 10636 10639 10643 10646 10650 10653 10654 10656 10657 10658 10659 10660 10661 10661 10660 10660 10660
10731 10728 10727 10726 10725 10725 10724 10723 10721 10720 10718 10715 10713 10711 10708 10706 10703 10700 10696 10694 10691 10687 10685 10684 10681 10679 10678 10676 10675 10673 10671 10669 10667 10665 10663 10662 10660 10659 10658 10656 10654 10653 10651 10650 10649 10647 10645 10644 10643 10642 10640 10638 10636 10634 10631 10627 10623 10620 10618 10618 10619 10621 10622 10624 10625 10627 10629 10630 10631 10631 10632 10634 10637 10641 10644 10648 10651 10653 10653 10655 10656 10657 10658 10660 10660 10659 10659 10658
10729 10728 10726 10726 10725 10725 10724 10723 10722 10721 10719 10717 10715 10712 10710 10709 10706 10703 10700 10697 10694 10690 10689 10687 10685 10684 10682 10681 10679 10678 10676 10674 10671 10669 10667 10666 10664 10663 10661 10659 10657 10656 10655 10653 10652 10650 10649 10648 10646 10643 10641 10638 10635 10632 10629 10624 10620 10616 10613 10613 10614 10615 10618 10620 10622 10625 10627 10629 10630 10631 10632 10633 10635 10639 10643 10646 10649 10650 10651 10653 10654 10655 10657 10658 10658 10657 10657 10656
10728 10727 10726 10726 10726 10726 10725 10724 10723 10722 10720 10718 10716 10714 10712 10711 10709 10706 10703 10700 10697 10694 10692 10690 10689 10688 10686 10685 10684 10682 10680 10678 10675 10673 10671 10670 10668 10667 10665 10663 10661 10660 10659 10658 10656 10654 10651 10648 10645 10642 10640 10637 10633 10630 10627 10622 10616 10611 10609 10608 10610 10611 10614 10618 10620 10623 10625 10628 10632 10633 10633 10633 10635 10639 10642 10644 10647 10648 10649 10650 10651 10653 10655 10655 10655 10654 10653 10652
10727 10726 10726 10726 10726 10726 10726 10725 10723 10722 10721 10719 10718 10716 10714 10713 10711 10708 10705 10703 10700 10698 10696 10694 10693 10692 10690 10689 10688 10686 10683 10682 10679 10677 10676 10674 10672 10671 10670 10668 10666 10664 10663 10660 10657 10654 10651 10649 10646 10644 10641 10637 10634 10631 10627 10621 10614 10609 10606 10606 10607 10608 10610 10615 10619 10621 10624 10629 10633 10634 10633 10633 10636 10638 10640 10642 10644 10646 10647 10648 10650 10652 10652 10652 10652 10651 10650 10650
10726 10726 10726 10726 10727 10727 10726 10725 10724 10723 10721 10720 10719 10717 10716 10714 10712 10710 10707 10705 10703 10702 10700 10698 10696 10695 10693 10692 10691 10689 10687 10686 10683 10682 10680 10678 10677 10676 10673 10671 10669 10667 10665 10662 10659 10657 10655 10653 10651 10647 10644 10642 10640 10636 10630 10623 10615 10609 10606 10605 10606 10607 10609 10613 10618 10622 10625 10629 10632 10634 10633 10635 10636 10637 10638 10640 10642 10644 10646 10648 10649 10650 10650 10650 10649 10648 10648 10649
10725 10725 10726 10726 10727 10727 10727 10726 10724 10723 10723 10722 10720 10719 10717 10716 10715 10713 10711 10709 10707 10705 10703 10701 10700 10699 10697 10695 10694 10692 10691 10689 10687 10685 10684 10682 10680 10678 10676 10674 10672 10669 10668 10666 10664 10662 10660 10658 10654 10651 10650 10649 10646 10639 10633 10627 10618 10612 10609 10607 10606 10608 10609 10613 10618 10622 10624 10627 10631 10634 10635 10635 10636 10637 10637 10639 10641 10643 10645 10646 10648 10648 10648 10648 10648 10647 10648 10649
10725 10725 10726 10727 10727 10727 10727 10726 10725 10725 10724 10723 10722 10721 10719 10718 10717 10715 10714 10712 10710 10708 10706 10704 10703 10701 10699 10698 10697 10695 10694 10692 10690 10688 10686 10684 10682 10681 10679 10677 10675 10673 10672 10671 10668 10667 10665 10662 10660 10659 10657 10654 10648 10641 10637 10632 10623 10617 10614 10610 10609 10610 10611 10614 10619 10623 10625 10627 10631 10634 10635 10636 10636 10637 10638 10640 10641 10643 10644 10645 10646 10647 10647 10647 10647 10647 10648 10648
10724 10725 10725 10727 10727 10727 10727 10726 10726 10726 10725 10725 10724 10723 10722 10721 10719 10717 10716 10714 10712 10710 10708 10706 10705 10704 10702 10700 10699 10697 10696 10695 10693 10691 10689 10687 10685 10684 10683 10681 10679 10678 10676 10674 10673 10671 10669 10667 10665 10663 10660 10656 10649 10645 10642 10637 10630 10625 10621 10617 10615 10615 10616 10618 10622 10627 10629 10631 10634 10635 10636 10637 10638 10639 10640 10641 10642 10643 10644 10645 10645 10645 10645 10646 10646 10647 10647 10647
10724 10724 10725 10726 10727 10728 10727 10727 10727 10727 10726 10726 10725 10724 10723 10722 10720 10719 10717 10715 10714 10712 10710 10709 10708 10706 10704 10702 10701 10699 10699 10697 10695 10693 10691 10690 10689 10687 10686 10684 10682 10681 10680 10678 10676 10674 10672 10671 10668 10665 10662 10658 10653 10650 10648 10643 10638 10634 10629 10624 10622 10621 10622 10624 10628 10631 10633 10635 10636 10638 10638 10639 10640 10640 10641 10642 10642 10643 10644 10645 10645 10645 10645 10645 10646 10646 10646 10646
10723 10724 10725 10726 10727 10728 10728 10728 10727 10727 10727 10727 10726 10725 10724 10723 10722 10720 10719 10717 10716 10714 10713 10712 10710 10708 10706 10705 10703 10702 10701 10699 10698 10696 10695 10693 10692 10691 10689 10687 10686 10684 10683 10681 10679 10678 10676 10674 10671 10667 10665 10661 10658 10656 10654 10649 10645 10642 10637 10633 10631 10629 10629 10631 10633 10635 10636 10637 10638 10639 10639 10640 10640 10641 10642 10643 10643 10644 10645 10645 10646 10645 10646 10646 10646 10646 10645 10645
10723 10724 10725 10726 10727 10728 10728 10728 10728 10728 10728 10727 10727 10726 10725 10724 10723 10722 10721 10719 10717 10716 10715 10714 10712 10710 10709 10708 10706 10704 10704 10703 10701 10700 10699 10697 10696 10694 10692 10690 10689 10687 10685 10683 10682 10680 10678 10676 10673 10671 10668 10665 10663 10661 10658 10655 10652 10649 10645 10641 10639 10637 10636 10635 10636 10637 10638 10639 10639 10640 10640 10641 10641 10642 10642 10643 10643 10644 10645 10646 10646 10646 10646 10646 10646 10645 10645 10644
10722 10723 10725 10726 10727 10728 10728 10728 10728 10728 10728 10728 10727 10727 10726 10725 10724 10723 10722 10721 10719 10718 10717 10716 10714 10713 10712 10710 10709 10708 10707 10706 10705 10703 10702 10700 10698 10696 10695 10693 10692 10690 10688 10686 10684 10683 10680 10678 10676 10673 10671 10670 10667 10665 10663 10660 10657 10655 10651 10648 10646 10643 10641 10640 10640 10640 10641 10641 10641 10641 10642 10642 10642 10643 10643 10643 10644 10644 10645 10646 10647 10647 10646 10646 10646 10645 10644 10643
10722 10723 10724 10726 10727 10728 10728 10728 10728 10728 10728 10728 10728 10728 10727 10726 10725 10725 10724 10722 10720 10720 10719 10718 10717 10716 10714 10712 10712 10711 10710 10709 10707 10705 10704 10702 10700 10699 10697 10696 10694 10692 10691 10689 10687 10685 10683 10681 10678 10676 10675 10673 10671 10669 10667 10664 10662 10660 10657 10654 10652 10650 10648 10647 10646 10645 10645 10645 10644 10644 10644 10643 10644 10643 10644 10644 10644 10644 10645 10646 10646 10647 10646 10646 10645 10644 10643 10641
10721 10722 10724 10725 10727 10728 10728 10728 10728 10729 10729 10729 10729 10729 10728 10727 10726 10726 10725 10724 10723 10722 10721 10720 10718 10717 10716 10715 10714 10713 10711 10710 10709 10707 10706 10704 10703 10702 10700 10699 10697 10696 10694 10692 10690 10688 10686 10684 10681 10680 10679 10677 10674 10673 10671 10668 10666 10664 10662 10660 10658 10657 10655 10653 10652 10651 10650 10650 10649 10648 10647 10646 10646 10645 10645 10645 10645 10645 10645 10645 10646 10646 10646 10645 10645 10643 10642 10640
10720 10721 10723 10725 10726 10727 10728 10728 10729 10729 10729 10729 10730 10729 10729 10728 10727 10727 10726 10725 10725 10724 10723 10722 10720 10719 10718 10717 10716 10715 10714 10713 10711 10710 10708 10707 10706 10704 10703 10702 10700 10699 10697 10695 10693 10691 10689 10687 10685 10683 10682 10679 10677 10676 10674 10672 10670 10668 10667 10665 10664 10662 10660 10659 10658 10656 10655 10654 10653 10652 10651 10650 10650 10649 10648 10648 10647 10647 10647 10647 10647 10647 10647 10646 10645 10643 10641 10640
10719 10721 10722 10724 10725 10727 10727 10728 10729 10729 10730 10730 10730 10729 10729 10728 10728 10728 10727 10727 10726 10726 10725 10723 10722 10721 10720 10719 10718 10717 10716 10714 10713 10712 10711 10709 10708 10707 10706 10704 10703 10701 10700 10698 10696 10694 10692 10690 10688 10687 10684 10681 10679 10678 10677 10675 10673 10672 10671 10669 10668 10666 10664 10663 10662 10660 10659 10658 10657 10656 10655 10654 10653 10652 10652 10651 10651 10650 10650 10649 10649 10648 10647 10646 10644 10643 10641 10639
10718 10720 10721 10723 10725 10726 10727 10728 10729 10729 10730 10730 10730 10729 10729 10729 10728 10728 10728 10728 10728 10727 10726 10725 10724 10722 10721 10720 10719 10718 10717 10716 10715 10713 10712 10711 10710 10709 10708 10706 10705 10703 10702 10700 10698 10696 10695 10693 10691 10689 10686 10684 10683 10681 10679 10678 10676 10675 10674 10673 10671 10669 10667 10666 10664 10663 10662 10660 10659 10658 10657 10656 10655 10654 10654 10653 10653 10652 10651 10650 10649 10648 10646 10645 10643 10641 10639 10637
10717 10719 10721 10723 10724 10725 10727 10728 10728 10729 10729 10730 10730 10730 10729 10729 10729 10729 10729 10729 10728 10728 10727 10726 10725 10723 10722 10721 10720 10719 10718 10717 10716 10715 10714 10713 10712 10711 10710 10708 10707 10705 10703 10702 10700 10699 10697 10695 10693 10691 10689 10687 10686 10684 10683 10681 10679 10677 10676 10675 10673 10671 10670 10668 10666 10665 10664 10662 10661 10660 10659 10658 10657 10656 10655 10654 10654 10653 10651 10650 10648 10647 10645 10643 10641 10639 10637 10635
10716 10718 10720 10722 10723 10725 10726 10727 10728 10728 10729 10729 10730 10730 10729 10729 10729 10730 10729 10729 10729 10728 10728 10727 10726 10725 10724 10722 10721 10720 10720 10719 10718 10717 10715 10714 10714 10712 10711 10710 10708 10707 10705 10703 10702 10700 10699 10697 10695 10693 10691 10689 10688 10686 10684 10682 10681 10679 10678 10676 10674 10673 10672 10670 10668 10667 10666 10665 10663 10662 10661 10660 10658 10657 10656 10655 10654 10652 10651 10649 10647 10646 10644 10642 10640 10638 10636 10633
10714 10716 10718 10720 10722 10724 10725 10726 10727 10728 10729 10729 10729 10730 10729 10729 10730 10730 10730 10730 10729 10729 10728 10728 10727 10726 10724 10723 10722 10721 10720 10720 10719 10718 10717 10716 10715 10714 10712 10711 10710 10708 10706 10705 10703 10702 10700 10698 10696 10694 10692 10691 10689 10687 10685 10684 10682 10681 10679 10678 10676 10674 10673 10671 10670 10668 10667 10666 10664 10663 10662 10660 10659 10658 10656 10655 10653 10652 10650 10648 10647 10645 10643 10641 10639 10637 10635 10632
10713 10715 10717 10719 10721 10723 10724 10725 10726 10727 10728 10729 10729 10729 10730 10730 10730 10730 10730 10730 10730 10729 10729 10728 10727 10726 10725 10724 10723 10722 10722 10721 10720 10719 10718 10717 10716 10714 10713 10712 10711 10709 10707 10706 10704 10702 10701 10699 10697 10696 10694 10692 10690 10689 10687 10685 10684 10682 10680 10679 10677 10675 10674 10672 10671 10669 10668 10666 10665 10663 10662 10660 10659 10658 10656 10655 10653 10651 10649 10647 10646 10644 10642 10640 10638 10635 10633 10631
10711 10713 10716 10718 10720 10722 10723 10724 10726 10727 10727 10728 10729 10729 10730 10730 10730 10730 10730 10730 10730 10730 10729 10728 10728 10727 10726 10725 10724 10723 10723 10722 10721 10720 10719 10717 10716 10715 10714 10713 10712 10710 10708 10707 10705 10703 10702 10700 10698 10697 10695 10693 10692 10690 10689 10687 10685 10683 10681 10680 10678 10676 10674 10673 10671 10670 10668 10667 10665 10664 10662 10661 10659 10657 10656 10654 10652 10650 10649 10647 10645 10643 10641 10639 10636 10634 10632 10629
10710 10712 10714 10717 10719 10721 10722 10724 10725 10726 10727 10728 10728 10729 10729 10730 10730 10730 10730 10730 10730 10730 10729 10729 10728 10727 10726 10726 10725 10724 10723 10722 10721 10720 10719 10718 10717 10716 10715 10714 10712 10711 10709 10707 10706 10704 10702 10701 10699 10697 10696 10694 10692 10691 10689 10688 10686 10684 10682 10681 10679 10677 10675 10673 10671 10670 10668 10667 10665 10664 10662 10660 10659 10657 10655 10654 10652 10650 10648 10646 10644 10642 10640 10638 10635 10633 10630 10627
10708 10711 10713 10715 10717 10719 10721 10723 10724 10725 10726 10727 10728 10729 10729 10729 10730 10730 10730 10730 10730 10730 10729 10729 10728 10727 10727 10726 10725 10724 10723 10722 10721 10720 10719 10718 10717 10717 10715 10714 10713 10712 10710 10708 10706 10705 10703 10702 10700 10699 10697 10695 10693 10692 10690 10689 10687 10685 10683 10681 10680 10677 10675 10674 10672 10670 10669 10667 10665 10664 10662 10660 10658 10657 10655 10653 10652 10650 10648 10646 10644 10641 10639 10636 10633 10630 10627 10624
10707 10709 10711 10714 10715 10717 10720 10721 10723 10724 10725 10726 10727 10728 10728 10729 10729 10729 10729 10729 10730 10729 10729 10729 10728 10727 10726 10726 10725 10724 10723 10723 10722 10721 10720 10719 10718 10717 10716 10715 10713 10712 10710 10709 10707 10706 10704 10703 10701 10700 10698 10696 10695 10693 10691 10689 10688 10686 10684 10682 10680 10678 10676 10674 10672 10670 10669 10667 10665 10663 10661 10660 10658 10656 10654 10653 10651 10649 10647 10644 10642 10640 10637 10634 10631 10628 10625 10623
10705 10707 10710 10712 10714 10716 10718 10720 10721 10723 10724 10725 10726 10727 10728 10728 10729 10729 10729 10729 10729 10729 10729 10728 10728 10727 10726 10725 10724 10724 10723 10722 10721 10721 10720 10719 10718 10717 10716 10714 10713 10712 10710 10709 10708 10706 10704 10703 10702 10700 10698 10696 10695 10693 10691 10689 10687 10685 10683 10681 10679 10677 10675 10673 10672 10670 10668 10666 10664 10662 10660 10659 10657 10655 10653 10651 10649 10647 10645 10642 10640 10637 10634 10632 10629 10627 10624 10621
10703 10705 10708 10710 10712 10714 10716 10718 10720 10722 10723 10724 10725 10726 10727 10728 10728 10728 10729 10729 10729 10728 10728 10728 10727 10726 10725 10725 10724 10723 10722 10722 10721 10720 10719 10719 10718 10716 10715 10714 10713 10711 10710 10709 10707 10706 10704 10703 10702 10700 10698 10696 10694 10692 10690 10688 10686 10684 10682 10680 10678 10676 10675 10673 10671 10669 10667 10665 10663 10661 10659 10657 10655 10653 10651 10648 10646 10644 10642 10640 10637 10634 10632 10629 10627 10625 10622 10618
10701 10704 10706 10708 10710 10712 10714 10716 10719 10720 10722 10723 10724 10725 10726 10727 10727 10728 10728 10728 10728 10728 10727 10727 10727 10726 10725 10725 10724 10723 10722 10721 10720 10719 10719 10718 10717 10716 10715 10714 10712 10711 10709 10708 10706 10705 10703 10702 10701 10699 10698 10696 10693 10691 10688 10686 10685 10683 10681 10679 10677 10675 10673 10671 10669 10667 10664 10662 10661 10659 10657 10655 10653 10650 10648 10646 10644 10642 10639 10637 10634 10632 10629 10627 10624 10622 10618 10614
10699 10702 10704 10706 10708 10710 10712 10715 10717 10718 10720 10721 10723 10724 10725 10725 10726 10727 10727 10727 10727 10727 10727 10726 10726 10725 10725 10724 10724 10723 10722 10721 10720 10719 10718 10717 10717 10716 10715 10714 10712 10710 10709 10707 10705 10703 10702 10700 10699 10697 10696 10695 10693 10691 10688 10686 10684 10682 10680 10678 10676 10674 10672 10669 10667 10665 10663 10661 10659 10657 10655 10653 10650 10648 10646 10644 10642 10639 10637 10635 10632 10629 10627 10624 10621 10618 10615 10611
10696 10699 10701 10703 10706 10708 10711 10713 10715 10717 10718 10720 10721 10722 10723 10724 10725 10726 10726 10726 10726 10726 10726 10726 10725 10725 10724 10724 10723 10723 10722 10721 10720 10718 10717 10717 10716 10715 10714 10713 10711 10710 10708 10706 10704 10702 10701 10699 10697 10696 10694 10693 10692 10690 10688 10686 10683 10681 10679 10677 10675 10673 10671 10669 10667 10664 10662 10660 10658 10655 10653 10651 10648 10646 10644 10642 10639 10637 10635 10632 10629 10626 10624 10621 10618 10615 10611 10608
10694 10697 10699 10701 10704 10706 10709 10711 10713 10715 10716 10718 10719 10720 10722 10723 10724 10724 10725 10725 10725 10725 10725 10724 10724 10724 10723 10723 10722 10722 10721 10720 10719 10718 10717 10716 10715 10714 10712 10711 10710 10709 10707 10706 10704 10702 10700 10698 10696 10694 10693 10692 10690 10689 10687 10685 10683 10681 10679 10676 10674 10672 10670 10669 10666 10664 10661 10659 10657 10654 10652 10649 10647 10644 10642 10640 10637 10635 10632 10629 10626 10624 10621 10618 10615 10612 10609 10606
10691 10694 10696 10699 10701 10704 10707 10709 10711 10713 10714 10716 10718 10719 10720 10721 10722 10722 10723 10723 10723 10723 10723 10723 10723 10722 10722 10722 10721 10720 10720 10719 10718 10717 10716 10714 10713 10712 10711 10709 10708 10707 10706 10704 10703 10701 10699 10697 10695 10693 10691 10690 10688 10687 10686 10684 10682 10680 10678 10675 10673 10670 10668 10667 10665 10662 10660 10657 10655 10653 10650 10648 10645 10643 10640 10638 10635 10632 10629 10626 10624 10621 10618 10616 10613 10610 10607 10603
10689 10691 10694 10696 10699 10702 10704 10707 10709 10711 10712 10714 10716 10717 10718 10719 10720 10721 10721 10722 10722 10722 10721 10721 10721 10721 10721 10721 10719 10718 10718 10717 10717 10716 10715 10713 10712 10711 10709 10708 10706 10705 10703 10702 10700 10698 10697 10695 10693 10691 10689 10688 10686 10685 10683 10681 10680 10678 10676 10674 10671 10669 10666 10664 10662 10660 10658 10655 10653 10650 10648 10646 10644 10642 10639 10636 10633 10630 10627 10625 10622 10619 10616 10614 10611 10607 10604 10601